Back to catalog

COSMOS 375 DEB

AliveLEO
NORAD 19949·DEBRIS·🇷🇺 Russia

Launched Oct 30, 1970 from Baikonur Cosmodrome

Loading…

Next Passes (next 24 hours)

TLE

FreshSource: Space-Track

Epoch: Sep 14, 2026, 03:25 UTC

1 19949U 70091AX  26257.14237251  .00003120  00000-0  71710-3 0  9991
2 19949  62.6123  41.5805 0480047 208.6344 148.7565 14.04504702892065

Track COSMOS 375 DEB in real time with AllMySat

Download on the App Store